Other Public Products
Issued by NWS Grand Forks, ND

Home | Current Version | Previous Version | Graphics & Text | Print | Product List | Glossary On
Versions: 1 2 3 4 5 6 7 8 9 10 11 12 13 14 15 16 17 18 19 20 21 22 23 24 25 26 27 28 29 30 31 32 33 34 35 36 37 38 39 40 41 42 43 44 45 46 47 48 49 50
000
FPUS83 KFGF 270110
OPUFGF
PRAIRIE TO PINES WEATHER ROUNDUP
NATIONAL WEATHER SERVICE EASTERN NORTH DAKOTA/GRAND FORKS ND
800 PM CDT TUE AUG 26 2014

 **SATELLITE DATA USED TO AUGMENT SKY COVER AT AUTOMATED STATIONS**
 *****  WEATHER ACROSS EASTERN NORTH DAKOTA  *****

CITY           SKY/WX    TMP DP  RH WIND       PRES   REMARKS
GRAND FORKS    MOCLDY    64  54  69 S3        30.11F
GRAND FORKS AF PTCLDY    63  57  80 W5        30.12F
GRAND CITY NWS   N/A     63 N/A N/A SW3         N/A
BUXTON         NOT AVBL
DEVILS LAKE    PTCLDY    64  48  55 N3        30.11R
FARGO          LGT RAIN  62  56  80 NW5       30.14S
WAHPETON ARPT  CLOUDY    63  52  67 CALM      30.14F
$$

 *****  WEATHER ACROSS CENTRAL AND WESTERN NORTH DAKOTA  *****

CITY           SKY/WX    TMP DP  RH WIND       PRES   REMARKS
JAMESTOWN      CLOUDY    58  55  90 S3        30.15S
BISMARCK       MOCLDY    59  54  83 S5        30.16R
MINOT          CLEAR     66  47  50 S8        30.11S
MINOT AFB      PTCLDY    64  53  67 S7        30.10S
GARRISON         N/A     63  54  72 SE3       30.13R
WILLISTON      CLEAR     70  44  39 SE3       30.10S
DICKINSON      CLEAR     61  53  75 S8        30.13S
HETTINGER      CLEAR     62  52  69 SE8       30.15R
$$

 *****  OTHER OBSERVATIONS NORTHEAST NORTH DAKOTA  *****

CITY           SKY/WX    TMP DP  RH WIND       PRES   REMARKS
WALHALLA         N/A     63  50  63 E6        30.11S
LANGDON        FAIR      61  50  67 W6        30.12S
CAVALIER       FAIR      63  50  63 E5        30.11S
GRAFTON        FAIR      64  50  59 W3        30.11S
CANDO          FAIR      61  50  67 W3        30.13S
FORT TOTTEN    NOT AVBL
ROLLA          FAIR      61  50  67 NW3       30.14S
RUGBY          FAIR      64  52  63 CALM      30.12S
 ***** THE ABOVE OBSERVATIONS ARE NON NWS ARE NOT QUALITY
        CONTROLLED AND MAY MIS-REPORT RAIN FOR SNOW...
$$

 *****  OTHER OBSERVATIONS SOUTHEAST NORTH DAKOTA *****

CITY           SKY/WX    TMP DP  RH WIND       PRES   REMARKS
COOPERSTOWN    NOT AVBL
VALLEY CITY    LGT RAIN  57  57 100 W5        30.15S
OAKES          LGT RAIN  59  59 100 CALM      30.16R
GWINNER        MOCLDY    63  59  88 CALM      30.16S
SHEYENNE NWR     N/A     61  58  90 NW2       29.95S
BUFFALO        NOT AVBL
WYNDMERE       NOT AVBL
 ***** THE ABOVE OBSERVATIONS ARE NON NWS ARE NOT QUALITY
       CONTROLLED AND MAY MIS-REPORT RAIN FOR SNOW...
$$

  *****  WEATHER ACROSS NORTHERN MINNESOTA  *****

CITY           SKY/WX    TMP DP  RH WIND       PRES   REMARKS
FLAG ISLAND    PTCLDY    57  46  67 W6        30.13S
WARROAD        MOCLDY    57  50  77 CALM      30.15S
ROSEAU         PTCLDY    57  48  72 CALM      30.15S
HALLOCK        PTCLDY    61  52  72 E5        30.12S
THF RVR FALLS  CLOUDY    63  52  67 CALM      30.14S
HALSTAD          N/A     61  57  88 S3          N/A
FOSSTON        LGT RAIN  57  52  82 CALM      30.15F
BAUDETTE       MOCLDY    56  48  74 CALM      30.16S
WASKISH        MOCLDY    54  52  94 CALM      30.16S
CROOKSTON      MOCLDY    63  54  72 SW5       30.14S
$$
  *****  WEATHER ACROSS CENTRAL AND WEST MINNESOTA  *****

CITY           SKY/WX    TMP DP  RH WIND       PRES   REMARKS
BEMIDJI        MOCLDY    58  50  73 CALM      30.15S
PARK RAPIDS    LGT RAIN  60  52  74 NW3       30.16S
WADENA         MOCLDY    61  55  82 CALM      30.16S
DETROIT LAKES  LGT RAIN  63  52  67 SE3       30.16F
MOORHEAD       LGT RAIN  63  63 100 N5        30.15R
FERGUS FALLS   CLOUDY    64  54  68 CALM      30.14F
ELBOW LAKE     MOCLDY    61  56  84 SW3       30.15F
MORRIS MN      CLOUDY    63  57  82 CALM      30.15F
STAPLES        MOCLDY    61  54  77 CALM      30.16F
WHEATON        CLOUDY    59  54  82 CALM      30.16F
$$
  *****  WEATHER ELSEWHERE ACROSS MINNESOTA  *****

CITY           SKY/WX    TMP DP  RH WIND       PRES   REMARKS
DULUTH         PTCLDY    60  50  69 NW6       30.15R
INTRNTL FALLS    N/A     55  48  77 SW5       30.15S
ELY            CLOUDY    57  48  72 NW3       30.14R
CLOQUET        PTCLDY    59  48  67 NW6       30.15S
BRAINERD       MOCLDY    61  52  72 N3        30.16F
HIBBING        CLOUDY    58  47  66 W6        30.16S
ALEXANDRIA     CLOUDY    63  55  75 CALM      30.17F
SAINT CLOUD    CLOUDY    67  53  61 N3        30.14F
MINNEAPOLIS    MOCLDY    70  52  52 NW9       30.14S
$$

  *****  WEATHER ACROSS SOUTH DAKOTA  *****

CITY           SKY/WX    TMP DP  RH WIND       PRES   REMARKS
SIOUX FALLS    MOCLDY    67  57  70 E9        30.13S
BROOKINGS      NOT AVBL
WATERTOWN      MOCLDY    62  54  74 E12       30.14F
HURON          PTCLDY    67  55  65 NE6       30.12R
SISSETON         N/A     61  57  87 S3        30.14F
ABERDEEN       CLOUDY    60  55  83 CALM      30.15S
MITCHELL       PTCLDY    69  61  75 SE7       30.11S
PIERRE         PTCLDY    69  57  65 E13       30.08S
MOBRIDGE       CLOUDY    63  56  78 NE7       30.11F
RAPID CITY     MOCLDY    73  58  59 NE6       30.11R
$$

  *****  SOME WEATHER IN NEARBY STATES *****

CITY           SKY/WX    TMP DP  RH WIND       PRES   REMARKS
GLASGOW MT     CLEAR     74  50  42 SE6       30.04F
GREAT FALLS MT SUNNY     77  36  22 SW8       30.04F
CHEYENNE WY    MOCLDY    68  52  56 SW8       30.23R
SCOTTSBLUFF NE CLOUDY    70  66  87 S10       30.11R
OMAHA NE       MOCLDY    73  67  81 E7        30.10S
DES MOINES IA  PTCLDY    75  63  66 E7        30.10S
DAVENPORT IA   PTCLDY    72  66  81 N6        30.09F
CHICAGO IL     PTCLDY    77  66  68 NE7       30.06S
EAU CLAIRE WI  MOCLDY    65  56  72 W3        30.13S
LA CROSSE WI   PTCLDY    69  56  62 N3        30.12S
$$

  *****  SOME NATIONAL WEATHER *****

CITY           SKY/WX    TMP DP  RH WIND       PRES   REMARKS
LA GUARDIA NY  PTCLDY    75  65  70 S10       30.09R
RALEIGH NC     MOCLDY    71  62  73 CALM      30.10S
ATLANTA GA     PTCLDY    79  57  46 E6        30.08R
NEW ORLEANS LA CLOUDY    84  70  62 E6        29.96R
OKLAHOMA CITY  PTCLDY    90  66  45 SE13      30.01R HX  92
ALBUQUERQUE NM MOCLDY    75  53  46 S7        30.19F
SALT LAKE CITY LGT RAIN  69  50  50 SE3       30.12R
LOS ANGELES CA MOSUNNY   72  61  68 W12       29.93F
BOISE ID       SUNNY     80  45  28 W6        30.03F
SEATTLE WA     SUNNY     86  52  30 W7        29.99F
$$

*** WEATHER ACROSS MANITOBA...SASKATCHEWAN AND ONTARIO ***
                ***ONTARIO***

CITY           SKY/WX    TMP DP  RH WIND       PRES   REMARKS
GERALDTON      CLOUDY    57  50  77 W2        30.04R
THUNDER BAY    CLOUDY    59  50  72 W6        30.10R
SIOUX LOOKOUT  CLOUDY    55  46  71 W6        30.11R
TORONTO        MOCLDY    79  70  73 SW8       29.98S
BIG TROUT LK   LGT RAIN  48  46  93 MISG      30.05
PICKLE LAKE    MOCLDY    52  46  82 NW3       30.06R
DRYDEN         CLOUDY    55  48  76 SW3       30.12S
KENORA         MOCLDY    57  48  72 W5        30.13F
$$
                *** MANITOBA***

CITY           SKY/WX    TMP DP  RH WIND       PRES   REMARKS
BRANDON        PTCLDY    63  52  67 SW5       30.11S
DAUPHIN        CLEAR     63  54  72 S3        30.07F
ISLAND LAKE    PTCLDY    48  48 100 CALM      30.09S
PILOT MOUND      N/A     59  46  63 W5          N/A
THE PAS        PTCLDY    61  48  63 SE8       29.99S
THOMPSON       MOCLDY    54  46  76 S7        30.01F
WINNIPEG       NOT AVBL
LYNN LAKE      CLEAR     61  41  48 MISG      29.89F
CHURCHILL      MOCLDY    57  43  58 S8        29.94F
GILLAM         MOCLDY    52  43  71 S7        30.05S
$$
                ***SASKATCHEWAN***

CITY           SKY/WX    TMP DP  RH WIND       PRES   REMARKS
ESTEVAN        PTCLDY    66  50  55 SE3       30.10F
KINDERSLEY     MOSUNNY   79  46  31 SW7       29.93S
LLOYDMINSTER   MOSUNNY   73  54  49 W6        29.87S
PRINCE ALBERT  PTCLDY    70  52  52 S10       29.91F
REGINA         CLEAR     68  54  60 S5        30.04F



USA.gov is the U.S. government's official web portal to all federal, state and local government web resources and services.